Weather in Ufa-Shigiri

Russia / Sverdlovsk Oblast     56°26′53″N   58°55′32″E
temp.,
°C
wind,
m/s
gust,
m/s
humid.,
%
clouds,
%
prec.,
mm/h
press.,
hPa
HPBL,
m
15 may, sat
sat1523:00+17wsw11555 0.0 102311
02:00+15ssw22625 0.1 102311
05:00+14s2270100 0.1 102320
08:00+20sw37525 0.0 1023319
11:00+25wsw58368 0.0 10221117
14:00+27wsw68339 0.0 10211978
17:00+27w4735100 0.0 10202012
20:00+23wsw4104998 0.0 1020347
16 may, sun
sun1623:00+18wsw296295 0.0 1020154
02:00+16sw2269100 0.0 102120
05:00+14ssw227397 0.0 102136
08:00+20wsw385111 0.0 1021329
11:00+25wsw4735100 0.0 1021860
14:00+28wsw5726100 0.0 10202197
17:00+28wsw57255 0.0 10202631
20:00+23w38420 0.0 1019228
17 may, mon
mon1723:00+18ssw22585 0.0 102027
02:00+16ssw22643 0.0 101912
05:00+15s236912 0.0 102045
08:00+21sw265051 0.0 1020287
11:00+26sw593453 0.0 10191344
14:00+28w61126100 0.0 10182904
17:00+27w5103098 0.0 10182774
20:00+23w49465 0.0 1017454
18 may, tue
tue1823:00+17w226711 0.0 101819
02:00+15w0174100 0.0 101811
05:00+14wsw1181100 0.1 101910
08:00+18wnw1464100 0.0 1019208
11:00+23wnw364454 0.0 10191163
14:00+27wnw493180 0.0 10182389
17:00+26nw59329 0.0 10162865
20:00+18w6117844 0.8 1019401
19 may, wed
wed1923:00+14nnw24878 1.1 1020101
02:00+13e11940 0.0 102010
05:00+12ene11940 0.0 102110
08:00+17ese23700 0.0 1022337
11:00+23se33440 0.0 10221053
14:00+26s21325 0.0 10212245
17:00+26s22294 0.0 10212276
20:00+22sse11460 0.0 102115